RYR290W LBSF-LIBD

Flight info

Callsign RYR290W
Flight time 1h 11m
Altitude 34000
Route NAPET T214 SIN DCT MAVAR DCT ODRAS DCT TRN DCT RODON DCT BALEM DCT CRAYE DCT ENOXA
Aircraft B738/M-SDE3FGILRWY/SB1

Departure

Time 2026-04-21 12:37
Airport Sofia Airport (LBSF)

Arrival

Time 2026-04-21 13:49
Airport Bari Karol Wojtyła International Airport (LIBD)
Time Latitude Longitude Altitude Speed Heading
2026-04-21 12:16 42.69028 23.41083 1748 ft 0 kts 162°
2026-04-21 12:30 42.68998 23.41096 1744 ft 9 kts 161°
2026-04-21 12:30 42.68979 23.41155 1745 ft 0 kts 69°
2026-04-21 12:32 42.68979 23.41157 1745 ft 1 kts 68°
2026-04-21 12:32 42.69005 23.41205 1744 ft 9 kts 45°
2026-04-21 12:32 42.69062 23.41217 1743 ft 9 kts 344°
2026-04-21 12:32 42.69119 23.41192 1744 ft 9 kts 342°
2026-04-21 12:33 42.69209 23.41154 1747 ft 15 kts 350°
2026-04-21 12:33 42.69311 23.41171 1749 ft 15 kts 12°
2026-04-21 12:33 42.69408 23.41200 1749 ft 14 kts 12°
2026-04-21 12:33 42.69482 23.41262 1749 ft 13 kts 75°
2026-04-21 12:34 42.69478 23.41402 1742 ft 20 kts 94°
2026-04-21 12:34 42.69464 23.41643 1744 ft 28 kts 94°
2026-04-21 12:34 42.69449 23.41887 1743 ft 25 kts 95°
2026-04-21 12:34 42.69436 23.42112 1743 ft 23 kts 95°
2026-04-21 12:35 42.69423 23.42326 1750 ft 22 kts 95°
2026-04-21 12:35 42.69411 23.42534 1751 ft 22 kts 95°
2026-04-21 12:35 42.69404 23.42705 1751 ft 13 kts 81°
2026-04-21 12:35 42.69474 23.42745 1743 ft 13 kts 332°
2026-04-21 12:36 42.69528 23.42655 1743 ft 12 kts 305°
2026-04-21 12:36 42.69589 23.42594 1747 ft 6 kts 328°
2026-04-21 12:36 42.69598 23.42556 1742 ft 0 kts 275°
2026-04-21 12:36 42.69600 23.42517 1744 ft 21 kts 275°
2026-04-21 12:37 42.69633 23.41971 1749 ft 94 kts 275°
2026-04-21 12:37 42.69703 23.40797 1753 ft 153 kts 276°
2026-04-21 12:37 42.69790 23.39267 2291 ft 168 kts 276°
2026-04-21 12:37 42.70098 23.37781 3198 ft 162 kts 308°
2026-04-21 12:38 42.70875 23.36611 3878 ft 177 kts 312°
2026-04-21 12:38 42.71735 23.35212 4168 ft 206 kts 310°
2026-04-21 12:38 42.72665 23.33650 4454 ft 228 kts 310°
2026-04-21 12:38 42.73682 23.31919 5120 ft 234 kts 309°
2026-04-21 12:39 42.74615 23.30087 5787 ft 238 kts 292°
2026-04-21 12:39 42.74909 23.27884 6529 ft 239 kts 267°
2026-04-21 12:39 42.74542 23.25678 7212 ft 242 kts 247°
2026-04-21 12:39 42.73609 23.23771 7944 ft 245 kts 226°
2026-04-21 12:40 42.72281 23.22296 8695 ft 249 kts 220°
2026-04-21 12:40 42.70873 23.20884 9421 ft 252 kts 219°
2026-04-21 12:40 42.69447 23.19481 10117 ft 254 kts 220°
2026-04-21 12:40 42.68007 23.18064 10746 ft 256 kts 220°
2026-04-21 12:41 42.66561 23.16640 11408 ft 257 kts 221°
2026-04-21 12:41 42.65108 23.15204 12056 ft 259 kts 221°
2026-04-21 12:41 42.63645 23.13755 12732 ft 261 kts 221°
2026-04-21 12:41 42.62174 23.12297 13398 ft 263 kts 222°
2026-04-21 12:42 42.60690 23.10824 13997 ft 265 kts 222°
2026-04-21 12:42 42.59195 23.09339 14570 ft 267 kts 222°
2026-04-21 12:42 42.57694 23.07850 15128 ft 268 kts 222°
2026-04-21 12:42 42.56183 23.06350 15685 ft 270 kts 223°
2026-04-21 12:43 42.54662 23.04839 16215 ft 272 kts 223°
2026-04-21 12:43 42.53130 23.03321 16777 ft 273 kts 223°
2026-04-21 12:43 42.51595 23.01798 17342 ft 275 kts 223°
2026-04-21 12:43 42.50043 23.00259 17881 ft 277 kts 223°
2026-04-21 12:44 42.48480 22.98710 18409 ft 279 kts 223°
2026-04-21 12:44 42.46909 22.97155 18877 ft 281 kts 223°
2026-04-21 12:44 42.45326 22.95589 19336 ft 283 kts 223°
2026-04-21 12:44 42.43734 22.94015 19779 ft 285 kts 223°
2026-04-21 12:45 42.42126 22.92425 20225 ft 287 kts 223°
2026-04-21 12:45 42.40508 22.90827 20649 ft 289 kts 224°
2026-04-21 12:45 42.38876 22.89217 21111 ft 291 kts 224°
2026-04-21 12:45 42.37239 22.87604 21567 ft 292 kts 224°
2026-04-21 12:46 42.35593 22.85981 21995 ft 294 kts 224°
2026-04-21 12:46 42.33935 22.84347 22400 ft 296 kts 224°
2026-04-21 12:46 42.32261 22.82699 22822 ft 298 kts 224°
2026-04-21 12:46 42.30583 22.81048 23242 ft 300 kts 224°
2026-04-21 12:47 42.28909 22.79403 23639 ft 302 kts 224°
2026-04-21 12:47 42.27181 22.77707 23979 ft 303 kts 224°
2026-04-21 12:47 42.25493 22.76050 24317 ft 305 kts 224°
2026-04-21 12:47 42.23777 22.74368 24650 ft 306 kts 224°
2026-04-21 12:48 42.22050 22.72674 24969 ft 308 kts 224°
2026-04-21 12:48 42.20312 22.70971 25250 ft 309 kts 224°
2026-04-21 12:48 42.18567 22.69263 25573 ft 311 kts 224°
2026-04-21 12:48 42.16817 22.67551 25933 ft 311 kts 224°
2026-04-21 12:49 42.15061 22.65835 26254 ft 312 kts 224°
2026-04-21 12:49 42.13298 22.64112 26551 ft 314 kts 224°
2026-04-21 12:49 42.11522 22.62378 26848 ft 315 kts 224°
2026-04-21 12:49 42.09875 22.60467 27130 ft 311 kts 233°
2026-04-21 12:50 42.08491 22.58196 27194 ft 319 kts 242°
2026-04-21 12:50 42.07259 22.55647 27316 ft 331 kts 243°
2026-04-21 12:50 42.05996 22.52979 27415 ft 344 kts 243°
2026-04-21 12:50 42.04682 22.50214 27505 ft 357 kts 243°
2026-04-21 12:51 42.03316 22.47363 27607 ft 368 kts 242°
2026-04-21 12:51 42.01902 22.44433 27702 ft 379 kts 242°
2026-04-21 12:51 42.00446 22.41428 27879 ft 387 kts 242°
2026-04-21 12:51 41.99034 22.38321 28123 ft 391 kts 247°
2026-04-21 12:52 41.97936 22.34984 28472 ft 390 kts 253°
2026-04-21 12:52 41.97212 22.31498 29009 ft 385 kts 260°
2026-04-21 12:52 41.96651 22.27993 29628 ft 382 kts 261°
2026-04-21 12:52 41.96103 22.24511 30145 ft 380 kts 261°
2026-04-21 12:53 41.95555 22.21037 30525 ft 381 kts 261°
2026-04-21 12:53 41.95001 22.17550 30888 ft 382 kts 261°
2026-04-21 12:53 41.94442 22.14068 31309 ft 381 kts 260°
2026-04-21 12:53 41.93880 22.10593 31754 ft 381 kts 260°
2026-04-21 12:54 41.93316 22.07121 32139 ft 380 kts 260°
2026-04-21 12:54 41.92757 22.03697 32523 ft 381 kts 260°
2026-04-21 12:54 41.92180 22.00178 32973 ft 380 kts 260°
2026-04-21 12:54 41.91619 21.96761 33315 ft 380 kts 260°
2026-04-21 12:55 41.91040 21.93241 33624 ft 382 kts 260°
2026-04-21 12:55 41.90474 21.89808 33945 ft 382 kts 260°
2026-04-21 12:55 41.89897 21.86312 33959 ft 386 kts 260°
2026-04-21 12:56 41.88735 21.79307 33982 ft 382 kts 260°
2026-04-21 12:56 41.87579 21.72366 33995 ft 381 kts 260°
2026-04-21 12:57 41.86421 21.65431 33993 ft 381 kts 260°
2026-04-21 12:57 41.85259 21.58498 33985 ft 382 kts 260°
2026-04-21 12:58 41.84090 21.51554 33987 ft 382 kts 260°
2026-04-21 12:58 41.82914 21.44598 33962 ft 383 kts 260°
2026-04-21 12:59 41.81731 21.37627 33973 ft 384 kts 260°
2026-04-21 12:59 41.80541 21.30645 33975 ft 385 kts 259°
2026-04-21 13:00 41.79345 21.23649 33971 ft 386 kts 260°
2026-04-21 13:00 41.78139 21.16626 33957 ft 387 kts 260°
2026-04-21 13:01 41.76927 21.09597 33947 ft 387 kts 260°
2026-04-21 13:01 41.75714 21.02590 33949 ft 385 kts 259°
2026-04-21 13:02 41.74500 20.95602 33945 ft 385 kts 260°
2026-04-21 13:02 41.72680 20.85178 33938 ft 382 kts 260°
2026-04-21 13:03 41.71468 20.78269 33946 ft 380 kts 260°
2026-04-21 13:03 41.70259 20.71398 33940 ft 379 kts 259°
2026-04-21 13:04 41.69050 20.64552 33953 ft 378 kts 259°
2026-04-21 13:04 41.67848 20.57769 33939 ft 377 kts 260°
2026-04-21 13:05 41.66450 20.51035 33948 ft 378 kts 252°
2026-04-21 13:05 41.64423 20.44519 33952 ft 380 kts 251°
2026-04-21 13:06 41.62385 20.37997 33943 ft 381 kts 251°
2026-04-21 13:06 41.60360 20.31465 33958 ft 381 kts 252°
2026-04-21 13:07 41.58334 20.24921 33945 ft 382 kts 251°
2026-04-21 13:07 41.56294 20.18349 33947 ft 383 kts 252°
2026-04-21 13:08 41.54240 20.11781 33949 ft 384 kts 251°
2026-04-21 13:08 41.52173 20.05216 33953 ft 383 kts 251°
2026-04-21 13:09 41.50794 20.00837 33954 ft 383 kts 252°
2026-04-21 13:09 41.48078 19.92230 33949 ft 381 kts 251°
2026-04-21 13:10 41.46022 19.85729 33948 ft 380 kts 251°
2026-04-21 13:10 41.43969 19.79253 33963 ft 379 kts 251°
2026-04-21 13:11 41.42302 19.72637 33964 ft 375 kts 263°
2026-04-21 13:11 41.41969 19.65771 33967 ft 370 kts 276°
2026-04-21 13:12 41.42452 19.58958 33973 ft 369 kts 277°
2026-04-21 13:12 41.42955 19.52138 33958 ft 370 kts 277°
2026-04-21 13:13 41.43436 19.45311 33959 ft 370 kts 276°
2026-04-21 13:13 41.43905 19.38463 33956 ft 371 kts 276°
2026-04-21 13:14 41.44368 19.31599 33954 ft 373 kts 276°
2026-04-21 13:14 41.44829 19.24707 33946 ft 374 kts 276°
2026-04-21 13:15 41.45288 19.17798 33948 ft 375 kts 276°
2026-04-21 13:15 41.45744 19.10868 33944 ft 376 kts 276°
2026-04-21 13:16 41.46160 19.03916 33947 ft 377 kts 276°
2026-04-21 13:16 41.46543 18.96992 33946 ft 377 kts 276°
2026-04-21 13:17 41.46929 18.90017 33948 ft 377 kts 276°
2026-04-21 13:17 41.47314 18.83041 33947 ft 378 kts 276°
2026-04-21 13:18 41.47697 18.76059 33942 ft 378 kts 276°
2026-04-21 13:18 41.48011 18.70256 33946 ft 377 kts 276°
2026-04-21 13:19 41.48338 18.63360 33929 ft 363 kts 275°
2026-04-21 13:19 41.48601 18.56685 33943 ft 360 kts 275°
2026-04-21 13:20 41.48733 18.53345 33719 ft 363 kts 275°
2026-04-21 13:20 41.48865 18.50013 33482 ft 356 kts 275°
2026-04-21 13:20 41.48994 18.46739 33118 ft 351 kts 275°
2026-04-21 13:20 41.49122 18.43504 32737 ft 348 kts 275°
2026-04-21 13:21 41.49249 18.40305 32397 ft 344 kts 275°
2026-04-21 13:21 41.49374 18.37134 32028 ft 341 kts 275°
2026-04-21 13:21 41.49496 18.33997 31672 ft 337 kts 275°
2026-04-21 13:21 41.49617 18.30883 31307 ft 335 kts 276°
2026-04-21 13:22 41.49736 18.27802 30973 ft 332 kts 276°
2026-04-21 13:22 41.49854 18.24740 30633 ft 329 kts 276°
2026-04-21 13:22 41.49970 18.21708 30293 ft 326 kts 276°
2026-04-21 13:22 41.50083 18.18701 29944 ft 324 kts 276°
2026-04-21 13:23 41.50049 18.15704 29525 ft 325 kts 264°
2026-04-21 13:23 41.49442 18.12798 29209 ft 326 kts 255°
2026-04-21 13:23 41.48446 18.10089 28969 ft 327 kts 243°
2026-04-21 13:23 41.47018 18.07707 28660 ft 328 kts 237°
2026-04-21 13:24 41.45512 18.05421 28282 ft 327 kts 237°
2026-04-21 13:24 41.44009 18.03172 27951 ft 323 kts 236°
2026-04-21 13:24 41.42519 18.00936 27606 ft 322 kts 237°
2026-04-21 13:24 41.41042 17.98706 27272 ft 320 kts 237°
2026-04-21 13:25 41.39565 17.96466 26943 ft 325 kts 237°
2026-04-21 13:25 41.38055 17.94160 26612 ft 336 kts 236°
2026-04-21 13:25 41.36511 17.91806 26246 ft 337 kts 236°
2026-04-21 13:25 41.34974 17.89470 25881 ft 335 kts 236°
2026-04-21 13:26 41.33445 17.87149 25527 ft 332 kts 236°
2026-04-21 13:26 41.31928 17.84845 25181 ft 330 kts 236°
2026-04-21 13:26 41.30422 17.82557 24838 ft 328 kts 236°
2026-04-21 13:26 41.28928 17.80287 24486 ft 325 kts 236°
2026-04-21 13:27 41.27440 17.78027 24159 ft 324 kts 236°
2026-04-21 13:27 41.25965 17.75787 23826 ft 322 kts 236°
2026-04-21 13:27 41.24493 17.73554 23485 ft 320 kts 236°
2026-04-21 13:27 41.23026 17.71333 23090 ft 319 kts 236°
2026-04-21 13:28 41.21587 17.69115 22733 ft 314 kts 240°
2026-04-21 13:28 41.20467 17.66690 22407 ft 304 kts 250°
2026-04-21 13:28 41.19669 17.64152 21922 ft 301 kts 258°
2026-04-21 13:28 41.19166 17.61484 21595 ft 296 kts 262°
2026-04-21 13:29 41.18735 17.58821 21238 ft 294 kts 262°
2026-04-21 13:29 41.18319 17.56175 20922 ft 292 kts 262°
2026-04-21 13:29 41.17906 17.53553 20601 ft 289 kts 262°
2026-04-21 13:29 41.17492 17.50948 20286 ft 287 kts 262°
2026-04-21 13:30 41.17079 17.48367 19979 ft 285 kts 262°
2026-04-21 13:30 41.16666 17.45803 19673 ft 283 kts 262°
2026-04-21 13:30 41.16253 17.43254 19369 ft 281 kts 262°
2026-04-21 13:30 41.15841 17.40725 19059 ft 280 kts 262°
2026-04-21 13:31 41.15430 17.38206 18765 ft 278 kts 262°
2026-04-21 13:31 41.15021 17.35703 18461 ft 277 kts 261°
2026-04-21 13:31 41.14613 17.33212 18160 ft 276 kts 261°
2026-04-21 13:31 41.14205 17.30728 17822 ft 275 kts 261°
2026-04-21 13:32 41.13799 17.28259 17513 ft 273 kts 261°
2026-04-21 13:32 41.13396 17.25817 17204 ft 270 kts 261°
2026-04-21 13:32 41.12995 17.23389 16915 ft 268 kts 261°
2026-04-21 13:32 41.12732 17.21794 16717 ft 267 kts 261°
2026-04-21 13:33 41.12382 17.19682 16457 ft 265 kts 261°
2026-04-21 13:33 41.11988 17.17297 16156 ft 264 kts 261°
2026-04-21 13:33 41.11595 17.14930 15871 ft 262 kts 261°
2026-04-21 13:33 41.11203 17.12570 15572 ft 261 kts 261°
2026-04-21 13:34 41.10819 17.10255 15296 ft 261 kts 260°
2026-04-21 13:34 41.10425 17.07888 15015 ft 265 kts 260°
2026-04-21 13:34 41.10025 17.05480 14724 ft 271 kts 260°
2026-04-21 13:34 41.09614 17.03015 14422 ft 276 kts 260°
2026-04-21 13:35 41.09197 17.00522 14104 ft 276 kts 259°
2026-04-21 13:35 41.08781 16.98040 13794 ft 275 kts 259°
2026-04-21 13:35 41.08366 16.95568 13452 ft 275 kts 259°
2026-04-21 13:35 41.07949 16.93104 13118 ft 273 kts 258°
2026-04-21 13:36 41.07389 16.90723 12790 ft 273 kts 252°
2026-04-21 13:36 41.06711 16.88362 12476 ft 271 kts 251°
2026-04-21 13:36 41.06027 16.86038 12166 ft 270 kts 251°
2026-04-21 13:36 41.05353 16.83730 11863 ft 268 kts 251°
2026-04-21 13:37 41.04692 16.81436 11584 ft 265 kts 251°
2026-04-21 13:37 41.04044 16.79164 11303 ft 263 kts 252°
2026-04-21 13:37 41.03405 16.76912 11127 ft 257 kts 251°
2026-04-21 13:37 41.02783 16.74724 11004 ft 250 kts 251°
2026-04-21 13:38 41.02181 16.72605 10892 ft 242 kts 251°
2026-04-21 13:38 41.01592 16.70530 10628 ft 241 kts 251°
2026-04-21 13:38 41.01003 16.68460 10379 ft 240 kts 251°
2026-04-21 13:38 41.00417 16.66399 10169 ft 239 kts 251°
2026-04-21 13:39 40.99833 16.64347 9909 ft 238 kts 251°
2026-04-21 13:39 40.99265 16.62356 9899 ft 225 kts 251°
2026-04-21 13:39 40.98710 16.60411 9618 ft 229 kts 251°
2026-04-21 13:39 40.98141 16.58418 9387 ft 235 kts 251°
2026-04-21 13:40 40.97557 16.56372 9129 ft 239 kts 251°
2026-04-21 13:40 40.96980 16.54358 8986 ft 229 kts 250°
2026-04-21 13:40 40.96424 16.52422 8978 ft 221 kts 250°
2026-04-21 13:40 40.95890 16.50556 8955 ft 212 kts 250°
2026-04-21 13:41 40.95376 16.48757 8958 ft 208 kts 250°
2026-04-21 13:41 40.94867 16.46977 8961 ft 206 kts 251°
2026-04-21 13:41 40.94359 16.45204 8959 ft 206 kts 250°
2026-04-21 13:41 40.93994 16.43395 8952 ft 204 kts 270°
2026-04-21 13:42 40.94346 16.41597 8930 ft 209 kts 296°
2026-04-21 13:42 40.95379 16.40128 8522 ft 230 kts 324°
2026-04-21 13:42 40.96868 16.39250 8144 ft 238 kts 335°
2026-04-21 13:42 40.98445 16.38469 7708 ft 245 kts 335°
2026-04-21 13:43 41.00087 16.37747 7261 ft 255 kts 347°
2026-04-21 13:43 41.01870 16.37961 6808 ft 271 kts 18°
2026-04-21 13:43 41.03388 16.39441 6328 ft 278 kts 53°
2026-04-21 13:43 41.04289 16.41710 5862 ft 279 kts 68°
2026-04-21 13:44 41.04957 16.44119 5359 ft 279 kts 70°
2026-04-21 13:44 41.05598 16.46532 4929 ft 277 kts 69°
2026-04-21 13:44 41.06254 16.48922 4459 ft 276 kts 69°
2026-04-21 13:44 41.06917 16.51302 4119 ft 270 kts 69°
2026-04-21 13:45 41.07559 16.53598 3601 ft 266 kts 69°
2026-04-21 13:45 41.08196 16.55877 3105 ft 260 kts 69°
2026-04-21 13:45 41.08810 16.58077 2702 ft 249 kts 69°
2026-04-21 13:45 41.09388 16.60144 2375 ft 229 kts 69°
2026-04-21 13:46 41.09919 16.62041 2076 ft 210 kts 68°
2026-04-21 13:46 41.10406 16.63781 1821 ft 193 kts 68°
2026-04-21 13:46 41.10856 16.65386 1563 ft 178 kts 68°
2026-04-21 13:46 41.11269 16.66859 1343 ft 163 kts 66°
2026-04-21 13:47 41.11642 16.68188 1168 ft 146 kts 66°
2026-04-21 13:47 41.11995 16.69440 931 ft 140 kts 69°
2026-04-21 13:47 41.12330 16.70632 767 ft 140 kts 69°
2026-04-21 13:47 41.12667 16.71837 604 ft 139 kts 71°
2026-04-21 13:48 41.13009 16.73062 388 ft 141 kts 70°
2026-04-21 13:48 41.13338 16.74248 223 ft 133 kts 70°
2026-04-21 13:48 41.13649 16.75342 150 ft 120 kts 70°
2026-04-21 13:48 41.13887 16.76185 149 ft 57 kts 69°
2026-04-21 13:49 41.13994 16.76576 148 ft 33 kts 81°
2026-04-21 13:49 41.13958 16.76748 153 ft 9 kts 115°
2026-04-21 13:49 41.13924 16.76811 156 ft 9 kts 154°
2026-04-21 13:49 41.13873 16.76789 157 ft 8 kts 238°
2026-04-21 13:50 41.13852 16.76718 157 ft 8 kts 250°
2026-04-21 13:50 41.13823 16.76617 157 ft 16 kts 249°
2026-04-21 13:50 41.13766 16.76555 157 ft 10 kts 167°
2026-04-21 13:50 41.13706 16.76605 157 ft 10 kts 153°
2026-04-21 13:51 41.13669 16.76623 158 ft 3 kts 171°
2026-04-21 13:51 41.13651 16.76617 158 ft 0 kts 203°
2026-04-21 13:51 41.13651 16.76616 158 ft 0 kts 203°